Other Public Products
Issued by NWS Grand Forks, ND

Home | Current Version | Previous Version | Graphics & Text | Print | Product List | Glossary On
Versions: 1 2 3 4 5 6 7 8 9 10 11 12 13 14 15 16 17 18 19 20 21 22 23 24 25 26 27 28 29 30 31 32 33 34 35 36 37 38 39 40 41 42 43 44 45 46 47 48 49 50
000
FPUS83 KFGF 270410
OPUFGF
PRAIRIE TO PINES WEATHER ROUNDUP
NATIONAL WEATHER SERVICE EASTERN NORTH DAKOTA/GRAND FORKS ND
1100 PM CDT FRI MAY 26 2017

 **SATELLITE DATA USED TO AUGMENT SKY COVER AT AUTOMATED STATIONS**
 *****  WEATHER ACROSS EASTERN NORTH DAKOTA  *****

CITY           SKY/WX    TMP DP  RH WIND       PRES   REMARKS
GRAND FORKS    FAIR      55  43  63 SW10      29.77R
GRAND FORKS AF FAIR      51  42  70 SW7       29.77R
GRAND CITY NWS NOT AVBL
BUXTON         NOT AVBL
DEVILS LAKE    FAIR      54  46  74 SW7       29.78S
FARGO          FAIR      56  42  59 SW6       29.81R
WAHPETON ARPT  FAIR      52  41  66 W8        29.84R
$$

 *****  WEATHER ACROSS CENTRAL AND WESTERN NORTH DAKOTA  *****

CITY           SKY/WX    TMP DP  RH WIND       PRES   REMARKS
JAMESTOWN      FAIR      53  42  66 SW7       29.82R
BISMARCK       FAIR      55  38  52 SW6       29.85R
MINOT          FAIR      54  37  52 SW9       29.78R
MINOT AFB      FAIR      53  36  53 W9        29.77R
GARRISON         N/A     53  33  46 W7        29.81R
WILLISTON      FAIR      53  39  59 W8        29.84R
DICKINSON      FAIR      48  34  58 W8        29.87R
HETTINGER      FAIR      50  36  58 NW3       29.92R
$$

 *****  OTHER OBSERVATIONS NORTHEAST NORTH DAKOTA  *****

CITY           SKY/WX    TMP DP  RH WIND       PRES   REMARKS
WALHALLA       NOT AVBL
LANGDON        FAIR      48  41  76 SW8       29.76R
CAVALIER       FAIR      57  43  58 SW8       29.73R
GRAFTON        FAIR      50  41  71 SW8       29.76S
CANDO          NOT AVBL
FORT TOTTEN      N/A     50  42  73 CALM      29.95
ROLLA          FAIR      48  41  76 SW5       29.76R
RUGBY          NOT AVBL
 ***** THE ABOVE OBSERVATIONS ARE NON NWS ARE NOT QUALITY
        CONTROLLED AND MAY MIS-REPORT RAIN FOR SNOW...
$$

 *****  OTHER OBSERVATIONS SOUTHEAST NORTH DAKOTA *****

CITY           SKY/WX    TMP DP  RH WIND       PRES   REMARKS
COOPERSTOWN    FAIR      50  41  71 SW12      29.81S
VALLEY CITY    FAIR      52  43  71 SW7       29.84R
OAKES          NOT AVBL
GWINNER        CLEAR     55  45  67 MISG      29.85R
SHEYENNE NWR     N/A     53  44  70 W3        29.95S
BUFFALO        NOT AVBL
WYNDMERE         N/A     54  43  66 SW5         N/A
 ***** THE ABOVE OBSERVATIONS ARE NON NWS ARE NOT QUALITY
       CONTROLLED AND MAY MIS-REPORT RAIN FOR SNOW...
$$

  *****  WEATHER ACROSS NORTHERN MINNESOTA  *****

CITY           SKY/WX    TMP DP  RH WIND       PRES   REMARKS
FLAG ISLAND    MOCLDY    57  46  67 SW9       29.71R
WARROAD        FAIR      55  46  71 SW5       29.74S
ROSEAU         MOCLDY    61  48  63 SW6       29.74S
HALLOCK        FAIR      54  39  58 SW5       29.74R
THF RVR FALLS  FAIR      55  42  61 SW6       29.78S
HALSTAD        NOT AVBL
FOSSTON        MOCLDY    52  43  71 SW6       29.81R
BAUDETTE       FAIR      53  43  68 SW6       29.75R
WASKISH        FAIR      57  46  67 SW8         N/A
CROOKSTON      FAIR      57  43  58 W7        29.78S
$$
  *****  WEATHER ACROSS CENTRAL AND WEST MINNESOTA  *****

CITY           SKY/WX    TMP DP  RH WIND       PRES   REMARKS
BEMIDJI        FAIR      55  44  66 SW3       29.80R
PARK RAPIDS    FAIR      53  41  63 SW5       29.82R
WADENA         FAIR      54  45  71 CALM      29.83R
DETROIT LAKES  FAIR      57  43  58 SW3       29.83S
MOORHEAD       FAIR      59  43  55 W5        29.82R
FERGUS FALLS   FAIR      57  45  62 CALM      29.82R
ELBOW LAKE     FAIR      56  43  61 CALM      29.85R
MORRIS MN      FAIR      55  46  71 W3        29.85R
STAPLES        FAIR      54  45  71 W3        29.84R
WHEATON        FAIR      54  43  66 S5        29.87R
$$
  *****  WEATHER ELSEWHERE ACROSS MINNESOTA  *****

CITY           SKY/WX    TMP DP  RH WIND       PRES   REMARKS
DULUTH         FAIR      51  49  92 SE5       29.79R
INTRNTL FALLS  FAIR      58  43  57 W5        29.75R
ELY            FAIR      55  54  94 CALM      29.76S
CLOQUET        FAIR      50  46  87 CALM      29.79S
BRAINERD       FAIR      61  45  55 W8        29.82R
HIBBING        FAIR      48  46  93 CALM      29.77R
ALEXANDRIA     FAIR      55  45  68 W5        29.86R
SAINT CLOUD    FAIR      60  47  61 NW5       29.83R
MINNEAPOLIS    FAIR      65  47  52 W6        29.82R
$$

  *****  WEATHER ACROSS SOUTH DAKOTA  *****

CITY           SKY/WX    TMP DP  RH WIND       PRES   REMARKS
SIOUX FALLS    FAIR      57  45  64 NW8       29.89S
BROOKINGS      FAIR      57  45  64 CALM      29.89S
WATERTOWN      FAIR      55  44  66 CALM      29.87F
HURON          FAIR      61  44  53 SW3       29.88R
SISSETON         N/A     58  46  64 W8        29.85R
ABERDEEN       FAIR      57  43  59 NW3       29.87R
MITCHELL       FAIR      58  45  62 S3        29.88F
PIERRE         CLOUDY    63  38  39 W7        29.89R
MOBRIDGE       FAIR      51  40  65 CALM      29.85S
RAPID CITY     CLOUDY    51  48  89 E3        29.97R
$$

  *****  SOME WEATHER IN NEARBY STATES *****

CITY           SKY/WX    TMP DP  RH WIND       PRES   REMARKS
GLASGOW MT     FAIR      51  41  68 NW6       29.90R
GREAT FALLS MT CLOUDY    51  38  60 SW10      29.97R
CHEYENNE WY    CLOUDY    46  43  89 N16G23    30.05R
SCOTTSBLUFF NE CLOUDY    50  48  93 N12       29.99S
OMAHA NE       MOCLDY    61  53  75 N5        29.86S
DES MOINES IA  FAIR      69  63  81 SE5       29.86R
DAVENPORT IA   CLOUDY    61  58  90 NE7       29.87R
CHICAGO IL     CLOUDY    56  53  90 NE7       29.85R
EAU CLAIRE WI  FAIR      64  56  75 S8        29.81R
LA CROSSE WI   FAIR      63  57  81 S6        29.83R
$$

  *****  SOME NATIONAL WEATHER *****

CITY           SKY/WX    TMP DP  RH WIND       PRES   REMARKS
LA GUARDIA NY  FAIR      65  53  65 NW12      29.80R
RALEIGH NC     FAIR      66  59  78 CALM      29.96S
ATLANTA GA     FAIR      72  61  68 SW5       30.02R
NEW ORLEANS LA FAIR      76  73  91 S8        30.01R
OKLAHOMA CITY  FAIR      77  68  73 NE6       29.80R
ALBUQUERQUE NM FAIR      74   9   8 W12       29.99R
SALT LAKE CITY FAIR      58  41  53 N13       30.00R
LOS ANGELES CA FAIR      61  53  75 SW9       30.00R
BOISE ID       FAIR      62  39  42 S14       30.00R
SEATTLE WA     FAIR      70  47  43 N9        29.98R
$$

*** WEATHER ACROSS MANITOBA...SASKATCHEWAN AND ONTARIO ***
                ***ONTARIO***

CITY           SKY/WX    TMP DP  RH WIND       PRES   REMARKS
GERALDTON      LGT RAIN  55  50  82 SW9       29.81F
THUNDER BAY    MOCLDY    50  48  93 E6        29.79R
SIOUX LOOKOUT  MOCLDY    54  52  94 S6        29.70S
TORONTO        CLOUDY    59  55  88 NW5       29.86S
BIG TROUT LK   CLEAR     54  48  82 S3        29.65S
PICKLE LAKE    NOT AVBL
DRYDEN         CLOUDY    57  55  94 S8        29.70S
KENORA         PTCLDY    55  45  67 SW5       29.71R
$$
                *** MANITOBA***

CITY           SKY/WX    TMP DP  RH WIND       PRES   REMARKS
BRANDON        PTCLDY    52  45  76 W9        29.71R
DAUPHIN        CLOUDY    57  46  67 W14       29.66R
ISLAND LAKE    MOCLDY    59  46  63 SW5       29.57R
PILOT MOUND      N/A     48  41  76 SW5         N/A
THE PAS        DRIZZLE   52  50  93 W10       29.54R
THOMPSON       MOCLDY    54  52  94 NE7       29.50S
WINNIPEG       MOCLDY    59  46  63 SW9       29.69R
LYNN LAKE      LGT RAIN  46  46 100 N9        29.58S
CHURCHILL      CLOUDY    34  32  93 NE20      29.70S WCI  22
GILLAM         CLOUDY    54  52  94 NE5       29.55S
$$
                ***SASKATCHEWAN***

CITY           SKY/WX    TMP DP  RH WIND       PRES   REMARKS
ESTEVAN        PTCLDY    54  41  62 W12       29.78R
KINDERSLEY     MOCLDY    50  48  93 S6        29.79R
LLOYDMINSTER   PTCLDY    57  43  58 N5        29.76R
PRINCE ALBERT  MOCLDY    55  41  58 N10       29.70R
REGINA         LGT RAIN  52  41  66 W12       29.75R
YORKTON          N/A     52  43  71 SW7       29.70R



USA.gov is the U.S. government's official web portal to all federal, state and local government web resources and services.